DECAYED

OBJECT E, 66057 (Decayed)

Orbit data source: Space-Track

You're viewing an Uncataloged Satellite

Recently launched and/or uncataloged satellites may have evolving metadata. Metadata may include but not limited to: Owner, Maufacturer, Bus, Motor, and Mission.

OBJECT E, 66057 was a satellite in SSO that was launched on Sun, 19 Oct 2025 UTC launched from the Jiuquan Satellite Launch Center, China (JSC). Unknown objects in Earth's orbit typically refer to objects detected orbiting the Earth but have not yet been identified or cataloged. These objects could be anything from previously untracked satellites, spent rocket stages, debris from satellite collisions, or even natural meteoroids temporarily captured by Earth's gravity. This object's orbit decayed before it could be identified.

Loading next visibility...
Identifier
66057, 2025-234E
Orbit
Decayed
Country
Flag of TBDTBD
Related business
Manufacturer
CAS
Mission
Decayed spacecraft
Bus & Motor
Unknown
Mass
500 kg wet, 500 kg dry
Launch date (UTC)
2025-10-19 (8 months ago)
Launch vehicle
Unknown
Launch site
Jiuquan Satellite Launch Center, China (JSC)
Object type
Unknown
Shape & HBR
Cyl, 0.1 m
Radar Cross Section
5.880 m², Medium (>0.1 m² and < 1m²)

Expand to show TLE details & history
Last TLE update: 7 months ago

TLE from 7 months ago
0 OBJECT E
1 66057U 25234E   25333.64062011  .06654110  10712+0  24614-1 0  9997
2 66057  97.4383  40.2168 0009930 319.1728  40.8803 15.95698169  6393
Epoch: 2025-11-29T15:22Z
TLE epoch observation values (Epoch: 2025-11-29T15:22:29.577Z)
Latitude
-0.00001°
Longitude
100.82764°
Altitude
284.559 km
Speed
7.74 km/s
True Right ascension
02h 40m 52s
True Declination
0° 00' 00"
Sunlit
Object was in full shadow at epoch
Visualization orbit readout
Latitude
Unknown
Longitude
Unknown
Altitude
Unknown
Speed
Unknown
Apparent Right ascension
Unknown
Apparent Declination
Unknown
Sunlit
N/A
Visualization observer readout
Local Sidereal Time
07:19:00
Azimuth
Unknown
Elevation
Unknown
Doppler factor
Unknown
Orbital elements
Apogee altitude
289.852 km
Perigee altitude
276.622 km
Semi-major axis
6,661.374 km
Eccentricity
0.00099
Inclination
97.4383°
RAAN
40.2168°
Arg. of periapsis
319.1728°
True anomaly
40.95484°
Mean anomaly
40.8803°
Eccentric anomaly
40.91756°
Mean motion
3.99206 °/min
Orbital period
90.18 mins
BSTAR
0.024614
Loading maneuver chart data...
Computing Atmospheric mass density...
Loading historical data...
Loading historical data...
Loading historical data...
Loading historical data...
Loading historical data...
Loading historical data...
Loading historical data...
Other satellites on launch #234 in the year 2025 (2025-10-19 UTC)

Documentation

Showing up to 5 results
|